Regional Weather Roundup
Issued by NWS

Home | Current Version | Previous Version | Text Only | Print | Product List | Glossary Off
Versions: 1 2 3 4 5 6 7 8 9 10 11 12 13 14 15 16 17 18 19 20 21 22 23 24 25 26 27 28 29 30 31 32 33 34 35 36 37 38 39 40 41 42 43 44 45 46 47 48 49 50

000
ASUS43 KLSX 190059
RWRMO

WEATHER SUMMARY FOR MISSOURI
NATIONAL WEATHER SERVICE SPRINGFIELD MO
700 PM CST THU DEC 18 2014

NOTE: "FAIR" INDICATES FEW OR NO CLOUDS BELOW 12,000 FEET WITH NO
       SIGNIFICANT WEATHER AND/OR OBSTRUCTIONS TO VISIBILITY.
       CURRENT SKY AND/OR WEATHER CONDITIONS ARE NOT AVAILABLE FOR
       CHILLICOTHE AND FARMINGTON.

MOZ001>031-035>038-043-044-053-054-190200-
...NORTHERN AND WESTERN MISSOURI...

CITY           SKY/WX    TMP DP  RH WIND       PRES   REMARKS
KANSAS CTY INT CLOUDY    32  29  88 NE7       30.23R WCI  26
KANSAS C DTWN  CLOUDY    33  29  85 NE6       30.24R WCI  28
LEE`S SUMMIT   CLOUDY    32  29  88 E6        30.23R WCI  26
ST JOSEPH      CLOUDY    31  27  85 E3        30.25R
CHILLICOTHE      N/A     31  26  82 NE3       30.27R
KIRKSVILLE     CLOUDY    29  27  92 E6        30.25S WCI  23

$$
MOZ066>068-077>081-088>096-101>105-190200-
...SOUTHWEST MISSOURI...

CITY           SKY/WX    TMP DP  RH WIND       PRES   REMARKS
SPRINGFIELD    CLOUDY    38  36  92 E3        30.18R
JOPLIN         CLOUDY    37  36  96 NE6       30.20R

$$
MOZ032>034-039>042-045>050-055>058-069>072-190200-
...CENTRAL MISSOURI...

CITY           SKY/WX    TMP DP  RH WIND       PRES   REMARKS
COLUMBIA       CLOUDY    32  30  92 E6        30.24R WCI  26
JEFFERSON CITY CLOUDY    34  30  85 NE6       30.26R WCI  29
ROLLA          FOG       33  32  96 NE6       30.20R VSB 1   WCI  28
SEDALIA        CLOUDY    34  31  88 E5        30.24R WCI  30
OSAGE BEACH    CLOUDY    36  32  87 NE3       30.22R VSB 1/2

$$
MOZ051-052-059>065-190200-
...EAST CENTRAL MISSOURI...

CITY           SKY/WX    TMP DP  RH WIND       PRES   REMARKS
ST LOUIS INTL  CLOUDY    35  25  66 E6        30.26R
SPIRIT OF STL  CLOUDY    34  28  79 N3        30.26R
ST CHARLES     CLOUDY    32  26  78 NE8       30.27R WCI  25

$$
MOZ072>076-082>087-097>100-106>115-190200-
...SOUTH CENTRAL AND SOUTHEAST MISSOURI...

CITY           SKY/WX    TMP DP  RH WIND       PRES   REMARKS
CAPE GIRARDEAU CLOUDY    36  33  89 CALM      30.26R
FARMINGTON     CLOUDY    34  34 100 N5        30.24R WCI  30
POPLAR BLUFF   CLOUDY    37  32  82 NE7       30.24R
WEST PLAINS    CLOUDY    37  34  89 CALM      30.20R

$$



USA.gov is the U.S. government's official web portal to all federal, state and local government web resources and services.